Back to catalog

BREEZE-M R/B

AliveHEO
NORAD 36102·ROCKET BODY·🇷🇺 Russia

Launched Nov 24, 2009 from Baikonur Cosmodrome

Loading…

Next Passes (next 24 hours)

TLE

FreshSource: Space-Track

Epoch: Sep 13, 2026, 16:19 UTC

1 36102U 09065B   26256.68045428 -.00000046  00000-0  00000-0 0  9991
2 36102  20.3267 207.7762 5900604 279.1332 327.4892  2.20879974135389

Track BREEZE-M R/B in real time with AllMySat

Download on the App Store